Weather History for Austin, MN

Change the Weather History Date:

Friday, September 14, 2012

  Actual Average Record
Temperature  
Mean Temperature 62 °F -  
Max Temperature 78 °F 71 °F 78 °F (2006)
Min Temperature 46 °F 51 °F 33 °F (1996)
Degree Days  
Heating Degree Days 3    
Growing Degree Days 12 (Base 50)    
Moisture  
Dew Point 44 °F    
Average Humidity 60    
Maximum Humidity 100    
Minimum Humidity 21    
Precipitation  
Precipitation 0.00 in - - ()
Sea Level Pressure  
Sea Level Pressure 30.29 in    
Wind  
Wind Speed 4 mph (SSE)    
Max Wind Speed 7 mph    
Max Gust Speed -    
Visibility 10 miles    
Events      
Averages and records for this station are not official NWS values.
T = Trace of Precipitation, MM = Missing Value Source: NWS Daily Summary

Daily Weather History Graph

Daily Weather History Graph

Search for Another Location

Airport:

Trip Planner

Search our weather history database for the weather conditions in past years. The results will help you decide how hot, cold, wet, or windy it might be!

Date:

Astronomy

Sep. 14, 2012 Rise Set
Actual Time 6:50 AM CDT 7:22 PM CDT
Civil Twilight 6:21 AM CDT 7:51 PM CDT
Nautical Twilight 5:47 AM CDT 8:25 PM CDT
Astronomical Twilight 5:12 AM CDT 9:00 PM CDT
Moon 5:13 AM CDT (9/14) 6:20 PM CDT (9/14)
Length of Visible Light 13h 29m
Length of Day
12h 32m
Waning Crescent, 2% of the Moon is Illuminated
Sep 14
Waning Crescent
Sep 15
New
Sep 22
First Quarter
Sep 29
Full
Oct 8
Last Quarter

Hourly Weather History & Observations

Time (CDT) Temp. Windchill Dew Point Humidity Pressure Visibility Wind Dir Wind Speed Gust Speed Precip Events Conditions
12:15 AM 53.6 °F - 44.6 °F 72% 30.31 in 10.0 mi SSW 5.8 mph - N/A   Clear
12:35 AM 51.8 °F - 46.4 °F 82% 30.31 in 10.0 mi South 5.8 mph - N/A   Clear
12:54 AM 53.6 °F - 46.4 °F 77% 30.30 in 10.0 mi South 6.9 mph - N/A   Clear
1:15 AM 53.6 °F - 46.4 °F 77% 30.31 in 10.0 mi South 4.6 mph - N/A   Clear
1:35 AM 53.6 °F - 48.2 °F 82% 30.31 in 10.0 mi South 4.6 mph - N/A   Scattered Clouds
1:54 AM 53.6 °F - 48.2 °F 82% 30.31 in 10.0 mi South 5.8 mph - N/A   Mostly Cloudy
2:15 AM 53.6 °F - 48.2 °F 82% 30.30 in 10.0 mi SSW 6.9 mph - N/A   Overcast
2:35 AM 53.6 °F - 48.2 °F 82% 30.30 in 10.0 mi SSW 5.8 mph - N/A   Mostly Cloudy
2:54 AM 51.8 °F - 48.2 °F 88% 30.30 in 10.0 mi SSW 5.8 mph - N/A   Scattered Clouds
3:15 AM 51.8 °F - 48.2 °F 88% 30.30 in 10.0 mi SSW 4.6 mph - N/A   Scattered Clouds
3:35 AM 51.8 °F - 46.4 °F 82% 30.30 in 10.0 mi SSW 4.6 mph - N/A   Scattered Clouds
3:54 AM 51.8 °F - 46.4 °F 82% 30.30 in 10.0 mi South 5.8 mph - N/A   Mostly Cloudy
4:15 AM 50.0 °F - 46.4 °F 87% 30.30 in 10.0 mi SSW 5.8 mph - N/A   Mostly Cloudy
4:35 AM 50.0 °F - 46.4 °F 87% 30.30 in 10.0 mi Calm Calm - N/A   Scattered Clouds
4:54 AM 48.2 °F - 46.4 °F 93% 30.31 in 10.0 mi Calm Calm - N/A   Scattered Clouds
5:15 AM 48.2 °F - 46.4 °F 93% 30.31 in 10.0 mi South 4.6 mph - N/A   Clear
5:35 AM 46.4 °F 43.5 °F 44.6 °F 93% 30.30 in 10.0 mi SSW 5.8 mph - N/A   Clear
5:54 AM 48.2 °F - 46.4 °F 93% 30.31 in 10.0 mi Calm Calm - N/A   Clear
6:15 AM 46.4 °F 44.3 °F 46.4 °F 100% 30.31 in 10.0 mi SSW 4.6 mph - N/A   Clear
6:35 AM 48.2 °F - 46.4 °F 93% 30.30 in 10.0 mi SSW 4.6 mph - N/A   Clear
6:54 AM 48.2 °F - 46.4 °F 93% 30.30 in 10.0 mi SSW 5.8 mph - N/A   Clear
7:15 AM 48.2 °F - 46.4 °F 93% 30.30 in 10.0 mi SSW 4.6 mph - N/A   Clear
7:35 AM 48.2 °F - 46.4 °F 93% 30.31 in 10.0 mi Calm Calm - N/A   Clear
7:54 AM 50.0 °F - 48.2 °F 94% 30.32 in 10.0 mi Calm Calm - N/A   Clear
8:15 AM 51.8 °F - 48.2 °F 88% 30.32 in 10.0 mi Calm Calm - N/A   Clear
8:35 AM 53.6 °F - 48.2 °F 82% 30.32 in 10.0 mi Calm Calm - N/A   Clear
8:54 AM 55.4 °F - 48.2 °F 77% 30.32 in 10.0 mi Calm Calm - N/A   Clear
9:15 AM 55.4 °F - 48.2 °F 77% 30.32 in 10.0 mi Calm Calm - N/A   Clear
9:34 AM 57.2 °F - 50.0 °F 77% 30.33 in 10.0 mi WSW 3.5 mph - N/A   Clear
9:55 AM 59.0 °F - 50.0 °F 72% 30.33 in 10.0 mi Calm Calm - N/A   Clear
10:15 AM 60.8 °F - 50.0 °F 68% 30.33 in 10.0 mi Calm Calm - N/A   Clear
10:34 AM 62.6 °F - 48.2 °F 59% 30.33 in 10.0 mi Calm Calm - N/A   Clear
10:55 AM 62.6 °F - 50.0 °F 63% 30.33 in 10.0 mi Calm Calm - N/A   Clear
11:15 AM 64.4 °F - 48.2 °F 56% 30.33 in 10.0 mi Calm Calm - N/A   Clear
11:34 AM 66.2 °F - 50.0 °F 56% 30.33 in 10.0 mi Calm Calm - N/A   Clear
11:55 AM 69.8 °F - 46.4 °F 43% 30.33 in 10.0 mi Calm Calm - N/A   Clear
12:14 PM 69.8 °F - 46.4 °F 43% 30.32 in 10.0 mi Calm Calm - N/A   Clear
12:35 PM 71.6 °F - 46.4 °F 41% 30.32 in 10.0 mi East 5.8 mph - N/A   Clear
12:55 PM 71.6 °F - 44.6 °F 38% 30.31 in 10.0 mi East 4.6 mph - N/A   Clear
1:14 PM 73.4 °F - 44.6 °F 36% 30.31 in 10.0 mi SE 3.5 mph - N/A   Clear
1:35 PM 73.4 °F - 42.8 °F 33% 30.30 in 10.0 mi North 3.5 mph - N/A   Clear
1:55 PM 75.2 °F - 39.2 °F 27% 30.30 in 10.0 mi East 4.6 mph - N/A   Clear
2:15 PM 75.2 °F - 35.6 °F 24% 30.29 in 10.0 mi Calm Calm - N/A   Clear
2:35 PM 75.2 °F - 39.2 °F 27% 30.29 in 10.0 mi East 3.5 mph - N/A   Clear
2:54 PM 75.2 °F - 37.4 °F 25% 30.28 in 10.0 mi Calm Calm - N/A   Clear
3:14 PM 78.8 °F - 37.4 °F 23% 30.28 in 10.0 mi ENE 5.8 mph - N/A   Clear
3:35 PM 75.2 °F - 35.6 °F 24% 30.28 in 10.0 mi West 3.5 mph - N/A   Clear
3:55 PM 77.0 °F - 37.4 °F 24% 30.27 in 10.0 mi Calm Calm - N/A   Clear
4:15 PM 78.8 °F - 35.6 °F 21% 30.27 in 10.0 mi Calm Calm - N/A   Clear
4:35 PM 77.0 °F - 37.4 °F 24% 30.26 in 10.0 mi West 4.6 mph - N/A   Clear
4:54 PM 77.0 °F - 35.6 °F 22% 30.27 in 10.0 mi Calm Calm - N/A   Clear
5:15 PM 77.0 °F - 35.6 °F 22% 30.26 in 10.0 mi Calm Calm - N/A   Clear
5:35 PM 75.2 °F - 35.6 °F 24% 30.26 in 10.0 mi Calm Calm - N/A   Clear
5:55 PM 75.2 °F - 35.6 °F 24% 30.26 in 10.0 mi Calm Calm - N/A   Clear
6:15 PM 75.2 °F - 37.4 °F 25% 30.26 in 10.0 mi Calm Calm - N/A   Clear
6:34 PM 73.4 °F - 39.2 °F 29% 30.26 in 10.0 mi Calm Calm - N/A   Clear
6:55 PM 73.4 °F - 39.2 °F 29% 30.26 in 10.0 mi Calm Calm - N/A   Clear
7:14 PM 69.8 °F - 41.0 °F 35% 30.26 in 10.0 mi Calm Calm - N/A   Clear
7:35 PM 66.2 °F - 46.4 °F 49% 30.26 in 10.0 mi NE 3.5 mph - N/A   Clear
7:55 PM 66.2 °F - 39.2 °F 37% 30.26 in 10.0 mi Calm Calm - N/A   Clear
8:14 PM 62.6 °F - 42.8 °F 48% 30.27 in 10.0 mi East 4.6 mph - N/A   Clear
8:35 PM 60.8 °F - 42.8 °F 52% 30.27 in 10.0 mi East 4.6 mph - N/A   Clear
8:55 PM 60.8 °F - 42.8 °F 52% 30.26 in 10.0 mi ENE 4.6 mph - N/A   Clear
9:14 PM 59.0 °F - 42.8 °F 55% 30.27 in 10.0 mi East 4.6 mph - N/A   Clear
9:35 PM 57.2 °F - 44.6 °F 63% 30.27 in 10.0 mi East 3.5 mph - N/A   Clear
9:55 PM 57.2 °F - 44.6 °F 63% 30.27 in 10.0 mi ESE 5.8 mph - N/A   Clear
10:15 PM 57.2 °F - 44.6 °F 63% 30.27 in 10.0 mi ESE 3.5 mph - N/A   Clear
10:35 PM 55.4 °F - 44.6 °F 67% 30.27 in 10.0 mi Calm Calm - N/A   Clear
10:54 PM 55.4 °F - 44.6 °F 67% 30.27 in 10.0 mi ESE 3.5 mph - N/A   Clear
11:35 PM 55.4 °F - 46.4 °F 72% 30.27 in 10.0 mi Calm Calm - N/A   Clear
11:55 PM 53.6 °F - 46.4 °F 77% 30.27 in 10.0 mi Calm Calm - N/A   Clear